Fullerton, CA

2:03 AM PDT on October 24, 2017 (GMT -0700)
Fullerton Municipal

Weather History for KFUL - August, 2013

Change the Weather History Date:

Wednesday, August 28, 2013

  Actual Average Record
Temperature  
Mean Temperature 85 °F 76 °F  
Max Temperature 98 °F 86 °F 100 °F (2012)
Min Temperature 71 °F 65 °F 62 °F (2010)
Degree Days  
Heating Degree Days 0 0  
Month to date heating degree days 22 0  
Since 1 June heating degree days 22 2  
Since 1 July heating degree days 22 0  
Cooling Degree Days 20 11  
Month to date cooling degree days 301 291  
Year to date cooling degree days 1300 833  
Since 1 June cooling degree days 945 710  
Growing Degree Days 34 (Base 50)    
Moisture  
Dew Point 56 °F    
Average Humidity 47    
Maximum Humidity 68    
Minimum Humidity 26    
Precipitation  
Precipitation 0.00 in 0.00 in 0.09 in (1951)
Month to date precipitation 0.00 0.04  
Year to date precipitation 2.53 9.73  
Since 1 July precipitation T  
Snow  
Snow 0.00 in - - ()
Month to date snowfall 0.0  
Year to date snowfall 0.0  
Snow Depth 0.00 in    
Sea Level Pressure  
Sea Level Pressure 29.81 in    
Wind  
Wind Speed 3 mph (SW)    
Max Wind Speed 10 mph    
Max Gust Speed 16 mph    
Visibility 10 miles    
Events      
T = Trace of Precipitation, MM = Missing Value Source: NWS Daily Summary

Daily Weather History Graph

Daily Weather History Graph

Search for Another Location

Airport or City:

Trip Planner

Search our weather history database for the weather conditions in past years. The results will help you decide how hot, cold, wet, or windy it might be!

Date:

Astronomy

Aug. 28, 2013 Rise Set
Actual Time 6:23 AM PDT 7:22 PM PDT
Civil Twilight 5:57 AM PDT 7:47 PM PDT
Nautical Twilight 5:27 AM PDT 8:18 PM PDT
Astronomical Twilight 4:55 AM PDT 8:49 PM PDT
Moon No Moon Rise 1:56 PM PDT (8/28)
Length of Visible Light 13h 50m
Length of Day
12h 59m
Last Quarter, 46% of the Moon is Illuminated
Aug 28
Last Quarter
Sep 5
New
Sep 12
First Quarter
Sep 19
Full
Sep 26
Last Quarter

Hourly Weather History & Observations

Time (PDT) Temp. Heat Index Dew Point Humidity Pressure Visibility Wind Dir Wind Speed Gust Speed Precip Events Conditions
12:53 AM 73.9 °F - 55.9 °F 53% 29.79 in 10.0 mi Calm Calm - N/A   Clear
1:53 AM 73.9 °F - 57.0 °F 55% 29.78 in 10.0 mi Calm Calm - N/A   Clear
2:53 AM 73.0 °F - 57.9 °F 59% 29.77 in 10.0 mi Calm Calm - N/A   Clear
3:53 AM 73.0 °F - 57.9 °F 59% 29.76 in 10.0 mi Calm Calm - N/A   Clear
4:53 AM 72.0 °F - 60.1 °F 66% 29.77 in 10.0 mi Calm Calm - N/A   Clear
5:53 AM 72.0 °F - 60.1 °F 66% 29.78 in 10.0 mi Calm Calm - N/A   Clear
6:53 AM 73.0 °F - 61.0 °F 66% 29.80 in 9.0 mi Calm Calm - N/A   Clear
7:53 AM 75.0 °F - 61.0 °F 62% 29.83 in 8.0 mi Calm Calm - N/A   Clear
8:53 AM 79.0 °F - 60.1 °F 52% 29.84 in 9.0 mi Calm Calm - N/A   Clear
9:53 AM 82.9 °F 82.4 °F 57.0 °F 41% 29.84 in 10.0 mi Calm Calm - N/A   Clear
10:53 AM 88.0 °F 86.7 °F 57.0 °F 35% 29.84 in 10.0 mi SSW 4.6 mph - N/A   Clear
11:53 AM 91.0 °F 90.0 °F 57.9 °F 33% 29.84 in 10.0 mi SW 5.8 mph - N/A   Clear
12:53 PM 95.0 °F 93.7 °F 57.0 °F 28% 29.83 in 10.0 mi SSW 6.9 mph - N/A   Clear
1:53 PM 93.0 °F 92.0 °F 57.9 °F 31% 29.82 in 10.0 mi SSW 6.9 mph - N/A   Clear
2:53 PM 95.0 °F 93.4 °F 55.9 °F 27% 29.80 in 10.0 mi SW 9.2 mph - N/A   Clear
3:53 PM 97.0 °F 96.1 °F 57.9 °F 27% 29.78 in 10.0 mi Variable 4.6 mph - N/A   Clear
4:53 PM 93.9 °F 92.2 °F 55.9 °F 28% 29.78 in 10.0 mi WSW 6.9 mph - N/A   Clear
5:53 PM 91.9 °F 89.5 °F 53.1 °F 27% 29.79 in 10.0 mi West 6.9 mph - N/A   Clear
6:53 PM 90.0 °F - 42.1 °F 19% 29.80 in 10.0 mi West 5.8 mph - N/A   Clear
7:53 PM 84.9 °F - 45.0 °F 25% 29.82 in 10.0 mi WNW 5.8 mph - N/A   Clear
8:53 PM 82.0 °F - 50.0 °F 33% 29.85 in 10.0 mi Calm Calm - N/A   Clear
9:53 PM 81.0 °F - 50.0 °F 34% 29.86 in 10.0 mi Calm Calm - N/A   Clear
10:53 PM 79.0 °F - 52.0 °F 39% 29.88 in 10.0 mi Calm Calm - N/A   Clear
11:53 PM 78.1 °F - 53.1 °F 42% 29.88 in 10.0 mi Calm Calm - N/A   Clear